www.pogodaiklimat.ru

АРХИВ ПОГОДЫ в Хьюстоне

Время (UTC), дата Ветер
(напр.,м/с)
 
Видим.   Явления Облачность Т
(С)
Тd
(С)
f
(%)
Тe
(С)
Тes
(С)
Комфортность

P
(гПа)

Po
(гПа)
Тmin
(С)
Tmax
(С)
R
(мм)
SD
(см)
07:53 16.06 Ю  16 км    ясно  +26.1  +25.0  94  +37  +37  очень
душно 
1015.2  1013.1         
08:53 16.06 штиль  16 км    ясно  +26.1  +25.0  94  +37  +37  очень
душно 
1015.0  1012.8         
09:53 16.06 Ю  16 км    5/5 480 м  +25.6  +25.0  96  +36  +36  очень
душно 
1014.9  1012.8         
10:53 16.06 Ю  16 км    5/2 450 м
[верхняя] 
+26.1  +25.0  94  +37  +37  очень
душно 
1015.1  1013.1         
11:53 16.06 Ю  16 км    8/2 450 м
[верхняя] 
+26.7  +25.0  90  +38  +38  очень
душно 
1015.9  1013.8  +25.6  +26.7     
12:53 16.06 Ю  16 км    5/0 7500 м
[верхняя] 
+27.2  +25.6  91  +40  +40  очень
душно 
1016.1  1014.1         
13:53 16.06 Ю  16 км    8/5 600 м
[верхняя] 
+28.9  +25.6  82  +43  +43  опасность
перегрева 
1016.7  1014.5         
14:53 16.06 Ю  16 км    8/8 600 м
[верхняя] 
+30.0  +25.0  75  +43  +44  опасность
перегрева 
1016.7  1014.5         
15:53 16.06 Ю  16 км    8/2 780 м
[верхняя] 
+31.7  +24.4  65  +44  +48  опасность
перегрева 
1016.4  1014.1         
16:53 16.06 Ю  16 км    8/2 900 м
[верхняя] 
+32.2  +23.9  62  +44  +51  опасность
перегрева 
1016.0  1013.8         
17:53 16.06 ЮЗ  16 км    8/2 1050 м
[верхняя] 
+33.9  +23.9  56  +45  +50  опасность
перегрева 
1015.8  1013.8  +26.7  +33.9     
18:53 16.06 Ю  16 км    8/2 1200 м
[верхняя] 
+34.4  +23.9  54  +46  +58  опасность
перегрева 
1015.5  1013.4         
19:53 16.06 нст  16 км    8/5 1200 м
[верхняя] 
+34.4  +23.3  53  +45  +54  опасность
перегрева 
1015.1  1013.1         
20:53 16.06 Ю  16 км    5/2 1350 м
[верхняя] 
+34.4  +22.8  51  +44  +54  опасность
перегрева 
1014.4  1012.4         
21:53 16.06 Ю  16 км    5/2 1500 м
[верхняя] 
+34.4  +23.9  54  +46  +52  опасность
перегрева 
1014.1  1012.1         
22:53 16.06 ЮВ  6
{8} 
16 км    5/2 1200 м
[верхняя] 
+33.3  +24.4  60  +46  +48  опасность
перегрева 
1013.8  1011.7         
23:53 16.06 Ю  16 км    5/2 1200 м
[верхняя] 
+32.2  +24.4  63  +44  +46  опасность
перегрева 
1013.7  1011.7  +32.2  +35.0     
00:53 17.06 ЮВ  16 км    2/0 7500 м
[верхняя] 
+30.0  +23.9  70  +41  +42  опасность
перегрева 
1014.0  1011.7         
01:53 17.06 Ю  16 км    2/0 7500 м
[верхняя] 
+28.9  +23.9  74  +40  +40  очень
душно 
1014.3  1012.1         
02:53 17.06 Ю  16 км    ясно  +27.8  +24.4  82  +39  +39  очень
душно 
1014.5  1012.4         
03:53 17.06 Ю  16 км    ясно  +27.2  +24.4  85  +38  +38  очень
душно 
1014.7  1012.4         
04:53 17.06 Ю  16 км    2/2 450 м  +27.2  +24.4  85  +38  +38  очень
душно 
1014.5  1012.4         
05:53 17.06 Ю  16 км    2/2 450 м  +26.7  +24.4  87  +37  +37  очень
душно 
1014.3  1012.1  +26.7  +32.2     
06:53 17.06 Ю  16 км    2/2 450 м  +26.1  +24.4  90  +36  +36  очень
душно 
1014.0  1012.1         
07:53 17.06 Ю  16 км    5/5 450 м  +26.1  +24.4  90  +36  +36  очень
душно 
1013.8  1011.7         
08:32 17.06 Ю  16 км    8/8 480 м  +26.0  +24.0  89  +36  +36  очень
душно 
  1011.7         
08:53 17.06 Ю  16 км    5/5 480 м  +26.1  +24.4  90  +36  +36  очень
душно 
1013.7  1011.7         
09:53 17.06 штиль  16 км    5/5 480 м  +25.6  +24.4  93  +36  +36  очень
душно 
1013.9  1011.7         
10:53 17.06 ЮЗ  16 км    2/2 480 м  +25.6  +24.4  93  +36  +36  очень
душно 
1014.1  1012.1         
11:53 17.06 штиль  16 км    2/2 480 м  +25.6  +24.4  93  +36  +36  очень
душно 
1014.7  1012.4  +25.0  +26.7     
12:53 17.06 штиль  16 км    2/2 450 м  +27.2  +25.0  88  +39  +40  очень
душно 
1015.5  1013.4         
13:53 17.06 Ю  16 км    2/2 450 м  +28.9  +25.0  80  +42  +43  опасность
перегрева 
1016.1  1014.1         
14:53 17.06 ЮЗ  16 км    5/5 600 м  +29.4  +23.9  72  +40  +43  очень
душно 
1016.0  1013.8         
15:53 17.06 ЮЗ  16 км    5/5 900 м  +31.1  +23.9  66  +43  +48  опасность
перегрева 
1015.9  1013.8         
16:53 17.06 ЮЗ  16 км    2/2 1050 м  +32.2  +23.9  62  +44  +55  опасность
перегрева 
1015.6  1013.4         
17:53 17.06 нст  16 км    2/2 1200 м  +33.3  +22.8  54  +43  +57  опасность
перегрева 
1015.2  1013.1  +25.6  +33.3     
18:53 17.06 нст  16 км    5/5 1350 м  +33.9  +23.9  56  +45  +57  опасность
перегрева 
1014.8  1012.8         
19:53 17.06 нст  16 км    5/5 1350 м  +35.0  +22.8  49  +45  +53  опасность
перегрева 
1014.4  1012.4         
20:53 17.06 штиль  16 км    5/5 1350 м  +35.0  +22.2  48  +44  +57  опасность
перегрева 
1013.9  1011.7         
21:53 17.06 ЮВ  16 км    5/5 1380 м  +34.4  +24.4  56  +47  +50  опасность
перегрева 
1013.1  1011.1         
22:53 17.06 ЮВ  16 км    5/5 1050 м  +32.2  +25.0  66  +46  +49  опасность
перегрева 
1012.8  1010.7         
23:53 17.06 Ю  16 км    2/2 1050 м  +31.7  +25.0  68  +45  +47  опасность
перегрева 
1012.5  1010.4  +31.7  +35.6     
00:53 18.06 Ю  16 км    2/2 1050 м  +30.6  +25.0  72  +44  +45  опасность
перегрева 
1012.7  1010.4         
01:53 18.06 Ю  16 км    2/2 900 м  +29.4  +25.0  77  +42  +42  опасность
перегрева 
1013.1  1011.1         
02:53 18.06 Ю  16 км    ясно  +28.3  +25.0  82  +41  +41  опасность
перегрева 
1013.6  1011.4         
03:53 18.06 Ю  16 км    ясно  +28.3  +25.0  82  +41  +41  опасность
перегрева 
1014.1  1012.1         
04:53 18.06 Ю  16 км    ясно  +27.2  +25.0  88  +39  +39  очень
душно 
1014.2  1012.1         
05:53 18.06 Ю  16 км    5/2 450 м
[верхняя] 
+26.7  +25.0  90  +38  +38  очень
душно 
1014.0  1011.7  +26.7  +31.7     

 

Местоположение метеостанции Houston Hobby Airport: широта 29.6375 долгота -95.2825 высота над уровнем моря 14 м.

В архиве по умолчанию представлена погода в Хьюстоне за последние 1-2 суток. Обновление информации о фактической погоде в базе происходит ежечасно! Архивные данные за месяц целиком и за предыдущие месяцы Вы можете получить, выбрав интересующий диапазон дат из раскрывающегося списка и нажав кнопку "Ввод!".

Внимание! Архив погоды МЕТАР в базе сайта в настоящее время начинается c 1 января 2013 г. Нет смысла пытаться выбрать более раннюю дату.

Внимание! Время в таблицах - всемирное. Для получения местного времени необходимо прибавить поправку, которая в Хьюстоне равна -6 ч.

Ветер - указаны скорость ветра в м/с и направление, откуда дует ветер: С - северный, СВ - северо-восточный, В - восточный, ЮВ - юго-восточный, Ю - южный, ЮЗ - юго-западный, З - западный, СЗ - северо-западный.
Видимость - горизонтальная дальность видимости в метрах или километрах. При видимости от 1 до 10 км при отсутствии осадков обычно наблюдается дымка, при ухудшении видимости до 1 км и менее - туман. В сухую погоду видимость может ухудшаться дымом, пылью или мглою.
Атмосферные явления - указаны явления, наблюдавшиеся в указанный момент времени.
Облачность - указаны через наклонную черту верхняя и нижняя облачность в баллах и высота нижней границы облаков в метрах. Внимание: облачность, как и прочие метеорологические величины в США измеряются автоматическими метеостанциями. Указанные значения в баллах носят условный характер и показывают процент времени, в течение которого, в среднем, лазерный луч высотомера отражался от облаков обратно.
T - Температура воздуха - температура, измеренная на высоте 2 м над землей.
Td - Температура точки росы - температура, при понижении до которой содержащийся в воздухе водяной пар достигнет насыщения.
f - Относительная влажность воздуха - влажноcть воздуха, измеренная на высоте 2 м над землей.
Te - Эффективная температура - температура, которую ощущает одетый по сезону человек в тени. Характеристика душности погоды. При расчете учитывается влияние влажности воздуха и скорости ветра на теплоощущения человека.
Tes - Эффективная температура на солнце - температура, которую ощущает человек, с поправкой на солнечный нагрев. Характеристика знойности погоды. Зависит от высоты солнца над горизонтом, облачности и скорости ветра. Ночью, в пасмурную погоду, а также при ветре 12 м/с и более поправка равна нулю.
P - Атмосферное давление - приведенное к уровню моря атмосферное давление.
Po - Атмосферное давление - измеренное на уровне метеостанции атмосферное давление.
Tmin - Минимальная температура - минимум температуры воздуха на высоте 2 м над землей.
Tmax - Максимальная температура - максимум температуры воздуха на высоте 2 м над землей.
R - Количество осадков - Количество выпавших осадков за 3 или 6 часов, мм.
SD - Снежный покров - Высота снежного покрова, см.